Project,Study,Ord_Occ,Event_Num,Cast_ID,Date_Time_UTC,Date_Time_PST,Lat_Dec,Lon_Dec,Sta_ID,Line,Sta,Depth,Pressure,PrQ,Temp1,Temp1Q,Temp2,Temp2Q,TempAve,Salt1,Salt1Q,Salt1_Corr,Salt2,Salt2Q,Salt2_Corr,SaltAve_Corr,Ox1,Ox1Q,Ox1_CruiseCorr,Ox1_StaCorr,Ox2,Ox2Q,Ox2_CruiseCorr,Ox2_StaCorr,OxAve_StaCorr,Ox1uM,Ox1uM_CruiseCorr,Ox1uM_StaCorr,Ox2uM,Ox2uM_CruiseCorr,Ox2uM_StaCorr,OxAveuM_StaCorr,FluorV,FluorQ,EstChl_CruiseCorr,EstChl_StaCorr,ISUSV,ISUSQ,EstNO3_CruiseCorr,EstNO3_StaCorr,SigThetaTS1,SigThetaTS1Q,SigThetaTS2,SigThetaTS2Q,BAT,XMiss,TransQ,pH,pHQ,SPAR,SPARQ,PAR,PARQ,PoT1,PoT2,DynHt,SVA,OxSat1,OxSat2,BTL_Depth,BTL_Temp,SaltB,OxB,OxBuM,Chl-a,Phaeo,NO3,NO2,NH4,PO4,SIL
CalCOFI,2101RL,031,,2101_031d,23-Jan-2021 03:17:36,22-Jan-2021 19:17:36,33.48409,-117.76866,090.0 028.0,090.0,028.0,4.000,4.029,,15.0463,,15.0476,,15.0470,33.5673,,33.5731,33.5640,,33.5660,33.5696,,,,,,,,,,,,,,,,,0.1714,,1.1563,1.5639, ,, , ,24.8576,,24.8547,,0.9718,78.4315,,,,2.6440E+00,,1.0000E-12,,15.0457,15.0470,0.0032,308.448,,,4,,33.5526,5.920,258.12,1.392,0.290,,,,,
CalCOFI,2101RL,031,,2101_031d,23-Jan-2021 03:17:45,22-Jan-2021 19:17:45,33.48411,-117.76866,090.0 028.0,090.0,028.0,5.000,5.036,,15.0528,,15.0541,,15.0535,33.5676,,33.5734,33.5642,,33.5662,33.5698,,,,,,,,,,,,,,,,,0.1647,,1.1014,1.5167, ,, , ,24.8565,,24.8536,,0.9701,78.4652,,,,3.0501E+00,,1.0000E-12,,15.0521,15.0533,0.0067,308.589,,,,,,,,,,,,,,
CalCOFI,2101RL,031,,2101_031d,23-Jan-2021 03:17:50,22-Jan-2021 19:17:50,33.48413,-117.76866,090.0 028.0,090.0,028.0,6.000,6.043,,15.0470,,15.0479,,15.0475,33.5668,,33.5726,33.5636,,33.5656,33.5691,,,,,,,,,,,,,,,,,0.1563,,1.0325,1.4577, ,, , ,24.8571,,24.8544,,0.9720,78.4277,,,,2.7066E+00,,1.0000E-12,,15.0461,15.0470,0.0099,308.560,,,,,,,,,,,,,,
CalCOFI,2101RL,031,,2101_031d,23-Jan-2021 03:17:51,22-Jan-2021 19:17:51,33.48414,-117.76866,090.0 028.0,090.0,028.0,7.000,7.050,,15.0243,,15.0237,,15.0240,33.5657,,33.5715,33.5626,,33.5646,33.5681,,,,,,,,,,,,,,,,,0.1590,,1.0547,1.4766, ,, , ,24.8613,,24.8590,,0.9760,78.3486,,,,3.0457E+00,,1.0000E-12,,15.0233,15.0226,0.0129,308.193,,,,,,,,,,,,,,
CalCOFI,2101RL,031,,2101_031d,23-Jan-2021 03:17:53,22-Jan-2021 19:17:53,33.48414,-117.76866,090.0 028.0,090.0,028.0,8.000,8.057,,15.0180,,15.0182,,15.0181,33.5656,,33.5714,33.5621,,33.5641,33.5678,,,,,,,,,,,,,,,,,0.1593,,1.0571,1.4788, ,, , ,24.8626,,24.8599,,0.9786,78.2970,,,,2.5381E+00,,1.0000E-12,,15.0167,15.0170,0.0161,308.098,,,,,,,,,,,,,,
CalCOFI,2101RL,031,,2101_031d,23-Jan-2021 03:17:55,22-Jan-2021 19:17:55,33.48414,-117.76866,090.0 028.0,090.0,028.0,9.000,9.064,,15.0183,,15.0189,,15.0186,33.5654,,33.5712,33.5622,,33.5642,33.5677,,,,,,,,,,,,,,,,,0.1583,,1.0489,1.4717, ,, , ,24.8624,,24.8598,,0.9898,78.0803,,,,2.4104E+00,,1.0000E-12,,15.0169,15.0175,0.0192,308.145,,,,,,,,,,,,,,
CalCOFI,2101RL,031,,2101_031d,23-Jan-2021 03:17:56,22-Jan-2021 19:17:56,33.48414,-117.76865,090.0 028.0,090.0,028.0,10.000,10.072,,15.0211,,15.0220,,15.0216,33.5655,,33.5713,33.5623,,33.5643,33.5678,,,,,,,,,,,,,,,,,0.1585,,1.0506,1.4731, ,, , ,24.8619,,24.8592,,0.9897,78.0816,,,,3.3174E+00,,1.0000E-12,,15.0196,15.0205,0.0223,308.223,,,10,,33.5511,5.905,257.47,1.570,0.408,,,,,
CalCOFI,2101RL,031,,2101_031d,23-Jan-2021 03:17:58,22-Jan-2021 19:17:58,33.48414,-117.76862,090.0 028.0,090.0,028.0,11.000,11.079,,15.0250,,15.0240,,15.0245,33.5655,,33.5713,33.5624,,33.5644,33.5679,,,,,,,,,,,,,,,,,0.1585,,1.0506,1.4731, ,, , ,24.8610,,24.8589,,0.9881,78.1133,,,,2.6679E+00,,1.0000E-12,,15.0234,15.0223,0.0254,308.338,,,,,,,,,,,,,,
CalCOFI,2101RL,031,,2101_031d,23-Jan-2021 03:18:00,22-Jan-2021 19:18:00,33.48412,-117.76862,090.0 028.0,090.0,028.0,12.000,12.086,,15.0241,,15.0254,,15.0248,33.5657,,33.5715,33.5626,,33.5646,33.5681,,,,,,,,,,,,,,,,,0.1588,,1.0530,1.4752, ,, , ,24.8615,,24.8588,,0.9904,78.0687,,,,2.9376E+00,,1.0000E-12,,15.0223,15.0236,0.0285,308.328,,,,,,,,,,,,,,
CalCOFI,2101RL,031,,2101_031d,23-Jan-2021 03:18:01,22-Jan-2021 19:18:01,33.48412,-117.76862,090.0 028.0,090.0,028.0,13.000,13.093,,15.0235,,15.0235,,15.0235,33.5659,,33.5717,33.5625,,33.5645,33.5681,,,,,,,,,,,,,,,,,0.1575,,1.0424,1.4661, ,, , ,24.8617,,24.8592,,0.9883,78.1090,,,,3.1798E+00,,1.0000E-12,,15.0216,15.0215,0.0316,308.332,,,,,,,,,,,,,,
CalCOFI,2101RL,031,,2101_031d,23-Jan-2021 03:18:04,22-Jan-2021 19:18:04,33.48412,-117.76860,090.0 028.0,090.0,028.0,14.000,14.100,,15.0216,,15.0203,,15.0210,33.5658,,33.5716,33.5624,,33.5644,33.5680,,,,,,,,,,,,,,,,,0.1570,,1.0383,1.4626, ,, , ,24.8621,,24.8598,,0.9878,78.1173,,,,2.6797E+00,,1.0000E-12,,15.0195,15.0182,0.0347,308.324,,,,,,,,,,,,,,
CalCOFI,2101RL,031,,2101_031d,23-Jan-2021 03:18:05,22-Jan-2021 19:18:05,33.48412,-117.76860,090.0 028.0,090.0,028.0,15.000,15.108,,15.0193,,15.0196,,15.0195,33.5654,,33.5712,33.5624,,33.5644,33.5678,,,,,,,,,,,,,,,,,0.1700,,1.1448,1.5540, ,, , ,24.8624,,24.8599,,0.9884,78.1064,,,,2.9757E+00,,1.0000E-12,,15.0171,15.0173,0.0378,308.332,,,,,,,,,,,,,,
CalCOFI,2101RL,031,,2101_031d,23-Jan-2021 03:18:07,22-Jan-2021 19:18:07,33.48412,-117.76861,090.0 028.0,090.0,028.0,16.000,16.115,,15.0192,,15.0191,,15.0192,33.5655,,33.5713,33.5623,,33.5643,33.5678,,,,,,,,,,,,,,,,,0.1567,,1.0358,1.4605, ,, , ,24.8625,,24.8601,,0.9861,78.1507,,,,3.1878E+00,,1.0000E-12,,15.0168,15.0167,0.0409,308.351,,,,,,,,,,,,,,
CalCOFI,2101RL,031,,2101_031d,23-Jan-2021 03:18:09,22-Jan-2021 19:18:09,33.48412,-117.76860,090.0 028.0,090.0,028.0,17.000,17.122,,15.0202,,15.0201,,15.0202,33.5656,,33.5714,33.5622,,33.5642,33.5678,,,,,,,,,,,,,,,,,0.1557,,1.0276,1.4534, ,, , ,24.8624,,24.8598,,0.9911,78.0541,,,,3.5966E+00,,1.0000E-12,,15.0176,15.0176,0.0440,308.392,,,,,,,,,,,,,,
CalCOFI,2101RL,031,,2101_031d,23-Jan-2021 03:18:10,22-Jan-2021 19:18:10,33.48412,-117.76860,090.0 028.0,090.0,028.0,18.000,18.129,,15.0227,,15.0232,,15.0230,33.5656,,33.5714,33.5624,,33.5644,33.5679,,,,,,,,,,,,,,,,,0.1573,,1.0407,1.4647, ,, , ,24.8619,,24.8593,,0.9893,78.0886,,,,3.0495E+00,,1.0000E-12,,15.0200,15.0205,0.0471,308.473,,,,,,,,,,,,,,
CalCOFI,2101RL,031,,2101_031d,23-Jan-2021 03:18:13,22-Jan-2021 19:18:13,33.48412,-117.76860,090.0 028.0,090.0,028.0,19.000,19.137,,15.0253,,15.0263,,15.0258,33.5655,,33.5713,33.5624,,33.5644,33.5679,,,,,,,,,,,,,,,,,0.1573,,1.0407,1.4647, ,, , ,24.8613,,24.8587,,0.9886,78.1016,,,,3.2258E+00,,1.0000E-12,,15.0224,15.0234,0.0502,308.557,,,,,,,,,,,,,,
CalCOFI,2101RL,031,,2101_031d,23-Jan-2021 03:18:15,22-Jan-2021 19:18:15,33.48412,-117.76860,090.0 028.0,090.0,028.0,20.000,20.144,,15.0216,,15.0205,,15.0211,33.5659,,33.5717,33.5626,,33.5646,33.5682,,,,,,,,,,,,,,,,,0.1565,,1.0342,1.4591, ,, , ,24.8624,,24.8601,,0.9907,78.0629,,,,3.4164E+00,,1.0000E-12,,15.0186,15.0175,0.0533,308.483,,,20,,33.5513,, ,1.662,0.370,,,,,
CalCOFI,2101RL,031,,2101_031d,23-Jan-2021 03:18:17,22-Jan-2021 19:18:17,33.48412,-117.76860,090.0 028.0,090.0,028.0,21.000,21.151,,15.0225,,15.0239,,15.0232,33.5657,,33.5715,33.5626,,33.5646,33.5681,,,,,,,,,,,,,,,,,0.1596,,1.0596,1.4809, ,, , ,24.8621,,24.8594,,0.9915,78.0456,,,,3.0220E+00,,1.0000E-12,,15.0193,15.0207,0.0564,308.545,,,,,,,,,,,,,,
CalCOFI,2101RL,031,,2101_031d,23-Jan-2021 03:18:19,22-Jan-2021 19:18:19,33.48412,-117.76859,090.0 028.0,090.0,028.0,22.000,22.158,,15.0162,,15.0149,,15.0156,33.5656,,33.5714,33.5622,,33.5642,33.5678,,,,,,,,,,,,,,,,,0.1581,,1.0473,1.4703, ,, , ,24.8634,,24.8611,,0.9957,77.9641,,,,3.6022E+00,,1.0000E-12,,15.0129,15.0116,0.0595,308.444,,,,,,,,,,,,,,
CalCOFI,2101RL,031,,2101_031d,23-Jan-2021 03:18:20,22-Jan-2021 19:18:20,33.48412,-117.76858,090.0 028.0,090.0,028.0,23.000,23.166,,14.9869,,14.9856,,14.9863,33.5647,,33.5705,33.5618,,33.5638,33.5672,,,,,,,,,,,,,,,,,0.1647,,1.1014,1.5167, ,, , ,24.8691,,24.8671,,1.0019,77.8429,,,,2.4800E+00,,1.0000E-12,,14.9834,14.9821,0.0626,307.937,,,,,,,,,,,,,,
CalCOFI,2101RL,031,,2101_031d,23-Jan-2021 03:18:22,22-Jan-2021 19:18:22,33.48413,-117.76858,090.0 028.0,090.0,028.0,24.000,24.173,,14.9574,,14.9528,,14.9551,33.5661,,33.5719,33.5618,,33.5638,33.5679,,,,,,,,,,,,,,,,,0.1649,,1.1030,1.5181, ,, , ,24.8766,,24.8743,,1.0037,77.8073,,,,3.2884E+00,,1.0000E-12,,14.9539,14.9492,0.0657,307.253,,,,,,,,,,,,,,
CalCOFI,2101RL,031,,2101_031d,23-Jan-2021 03:18:25,22-Jan-2021 19:18:25,33.48414,-117.76858,090.0 028.0,090.0,028.0,25.000,25.180,,14.9427,,14.9423,,14.9425,33.5644,,33.5702,33.5611,,33.5631,33.5667,,,,,,,,,,,,,,,,,0.1574,,1.0416,1.4654, ,, , ,24.8785,,24.8761,,1.0153,77.5833,,,,2.4732E+00,,1.0000E-12,,14.9390,14.9385,0.0688,307.097,,,,,,,,,,,,,,
CalCOFI,2101RL,031,,2101_031d,23-Jan-2021 03:18:27,22-Jan-2021 19:18:27,33.48414,-117.76858,090.0 028.0,090.0,028.0,26.000,26.187,,14.9444,,14.9444,,14.9444,33.5641,,33.5699,33.5609,,33.5629,33.5664,,,,,,,,,,,,,,,,,0.1581,,1.0473,1.4703, ,, , ,24.8779,,24.8755,,1.0218,77.4570,,,,3.3374E+00,,1.0000E-12,,14.9405,14.9405,0.0719,307.184,,,,,,,,,,,,,,
CalCOFI,2101RL,031,,2101_031d,23-Jan-2021 03:18:29,22-Jan-2021 19:18:29,33.48414,-117.76858,090.0 028.0,090.0,028.0,27.000,27.195,,14.9386,,14.9391,,14.9389,33.5644,,33.5702,33.5613,,33.5633,33.5668,,,,,,,,,,,,,,,,,0.1579,,1.0456,1.4689, ,, , ,24.8795,,24.8770,,1.0252,77.3904,,,,2.9231E+00,,1.0000E-12,,14.9346,14.9350,0.0750,307.068,,,,,,,,,,,,,,
CalCOFI,2101RL,031,,2101_031d,23-Jan-2021 03:18:30,22-Jan-2021 19:18:30,33.48416,-117.76858,090.0 028.0,090.0,028.0,28.000,28.202,,14.9256,,14.9231,,14.9244,33.5648,,33.5706,33.5617,,33.5637,33.5672,,,,,,,,,,,,,,,,,0.1547,,1.0194,1.4464, ,, , ,24.8827,,24.8808,,1.0281,77.3341,,,,3.1990E+00,,1.0000E-12,,14.9214,14.9189,0.0781,306.793,,,,,,,,,,,,,,
CalCOFI,2101RL,031,,2101_031d,23-Jan-2021 03:18:32,22-Jan-2021 19:18:32,33.48416,-117.76857,090.0 028.0,090.0,028.0,29.000,29.209,,14.9198,,14.9195,,14.9197,33.5649,,33.5707,33.5617,,33.5637,33.5672,,,,,,,,,,,,,,,,,0.1559,,1.0293,1.4548, ,, , ,24.8840,,24.8816,,1.0327,77.2455,,,,3.4100E+00,,1.0000E-12,,14.9154,14.9151,0.0812,306.698,,,,,,,,,,,,,,
CalCOFI,2101RL,031,,2101_031d,23-Jan-2021 03:18:34,22-Jan-2021 19:18:34,33.48416,-117.76856,090.0 028.0,090.0,028.0,30.000,30.216,,14.9064,,14.9074,,14.9069,33.5652,,33.5710,33.5623,,33.5643,33.5677,,,,,,,,,,,,,,,,,0.1571,,1.0391,1.4633, ,, , ,24.8872,,24.8847,,1.0386,77.1326,,,,3.4136E+00,,1.0000E-12,,14.9019,14.9030,0.0843,306.422,,,,,,,,,,,,,,
CalCOFI,2101RL,031,,2101_031d,23-Jan-2021 03:18:36,22-Jan-2021 19:18:36,33.48416,-117.76856,090.0 028.0,090.0,028.0,31.000,31.224,,14.8893,,14.8895,,14.8894,33.5657,,33.5715,33.5623,,33.5643,33.5679,,,,,,,,,,,,,,,,,0.1541,,1.0145,1.4422, ,, , ,24.8913,,24.8886,,1.0404,77.0974,,,,2.5086E+00,,1.0000E-12,,14.8847,14.8848,0.0874,306.061,,,,,,,,,,,,,,
CalCOFI,2101RL,031,,2101_031d,23-Jan-2021 03:18:38,22-Jan-2021 19:18:38,33.48416,-117.76856,090.0 028.0,090.0,028.0,32.000,32.231,,14.8745,,14.8727,,14.8736,33.5658,,33.5716,33.5626,,33.5646,33.5681,,,,,,,,,,,,,,,,,0.1544,,1.0170,1.4443, ,, , ,24.8946,,24.8925,,1.0424,77.0585,,,,2.5357E+00,,1.0000E-12,,14.8698,14.8680,0.0905,305.775,,,,,,,,,,,,,,
CalCOFI,2101RL,031,,2101_031d,23-Jan-2021 03:18:40,22-Jan-2021 19:18:40,33.48416,-117.76856,090.0 028.0,090.0,028.0,33.000,33.238,,14.8564,,14.8547,,14.8556,33.5654,,33.5712,33.5622,,33.5642,33.5677,,,,,,,,,,,,,,,,,0.1595,,1.0588,1.4802, ,, , ,24.8982,,24.8961,,1.0446,77.0155,,,,3.2019E+00,,1.0000E-12,,14.8515,14.8497,0.0935,305.463,,,,,,,,,,,,,,
CalCOFI,2101RL,031,,2101_031d,23-Jan-2021 03:18:42,22-Jan-2021 19:18:42,33.48417,-117.76856,090.0 028.0,090.0,028.0,34.000,34.246,,14.7449,,14.7478,,14.7464,33.5662,,33.5720,33.5632,,33.5652,33.5686,,,,,,,,,,,,,,,,,0.1635,,1.0915,1.5083, ,, , ,24.9229,,24.9199,,1.0566,76.7857,,,,3.0154E+00,,1.0000E-12,,14.7399,14.7428,0.0966,303.140,,,,,,,,,,,,,,
CalCOFI,2101RL,031,,2101_031d,23-Jan-2021 03:18:44,22-Jan-2021 19:18:44,33.48418,-117.76856,090.0 028.0,090.0,028.0,35.000,35.253,,14.6692,,14.6745,,14.6719,33.5677,,33.5735,33.5651,,33.5671,33.5703,,,,,,,,,,,,,,,,,0.1518,,0.9957,1.4260, ,, , ,24.9403,,24.9372,,1.0564,76.7900,,,,2.6638E+00,,1.0000E-12,,14.6641,14.6693,0.0996,301.509,,,,,,,,,,,,,,
CalCOFI,2101RL,031,,2101_031d,23-Jan-2021 03:18:46,22-Jan-2021 19:18:46,33.48417,-117.76855,090.0 028.0,090.0,028.0,36.000,36.260,,14.5663,,14.5658,,14.5661,33.5656,,33.5714,33.5632,,33.5652,33.5683,,,,,,,,,,,,,,,,,0.1349,,0.8572,1.3071, ,, , ,24.9607,,24.9589,,1.0666,76.5934,,,,2.9599E+00,,1.0000E-12,,14.5610,14.5606,0.1027,299.590,,,,,,,,,,,,,,
CalCOFI,2101RL,031,,2101_031d,23-Jan-2021 03:18:47,22-Jan-2021 19:18:47,33.48416,-117.76854,090.0 028.0,090.0,028.0,37.000,37.268,,14.5362,,14.5319,,14.5341,33.5644,,33.5702,33.5619,,33.5639,33.5671,,,,,,,,,,,,,,,,,0.1390,,0.8908,1.3360, ,, , ,24.9662,,24.9652,,1.0521,76.8726,,,,2.8022E+00,,1.0000E-12,,14.5308,14.5265,0.1057,299.094,,,,,,,,,,,,,,
CalCOFI,2101RL,031,,2101_031d,23-Jan-2021 03:18:51,22-Jan-2021 19:18:51,33.48416,-117.76854,090.0 028.0,090.0,028.0,38.000,38.275,,14.5607,,14.5625,,14.5616,33.5641,,33.5699,33.5619,,33.5639,33.5669,,,,,,,,,,,,,,,,,0.1403,,0.9014,1.3451, ,, , ,24.9608,,24.9586,,1.0329,77.2429,,,,3.6751E+00,,1.0000E-12,,14.5551,14.5569,0.1087,299.640,,,,,,,,,,,,,,
CalCOFI,2101RL,031,,2101_031d,23-Jan-2021 03:18:52,22-Jan-2021 19:18:52,33.48415,-117.76853,090.0 028.0,090.0,028.0,39.000,39.282,,14.4901,,14.4908,,14.4905,33.5632,,33.5690,33.5602,,33.5622,33.5656,,,,,,,,,,,,,,,,,0.1368,,0.8728,1.3205, ,, , ,24.9751,,24.9726,,1.0249,77.3961,,,,2.8422E+00,,1.0000E-12,,14.4844,14.4851,0.1117,298.298,,,,,,,,,,,,,,
CalCOFI,2101RL,031,,2101_031d,23-Jan-2021 03:18:53,22-Jan-2021 19:18:53,33.48414,-117.76852,090.0 028.0,090.0,028.0,40.000,40.290,,14.4791,,14.4800,,14.4796,33.5632,,33.5690,33.5600,,33.5620,33.5655,,,,,,,,,,,,,,,,,0.1454,,0.9432,1.3810, ,, , ,24.9775,,24.9748,,1.0136,77.6160,,,,2.8014E+00,,1.0000E-12,,14.4732,14.4742,0.1147,298.103,,,,,,,,,,,,,,
CalCOFI,2101RL,031,,2101_031d,23-Jan-2021 03:18:55,22-Jan-2021 19:18:55,33.48414,-117.76852,090.0 028.0,090.0,028.0,41.000,41.297,,14.4772,,14.4775,,14.4774,33.5634,,33.5692,33.5608,,33.5628,33.5660,,,,,,,,,,,,,,,,,0.1570,,1.0383,1.4626, ,, , ,24.9781,,24.9760,,1.0008,77.8647,,,,2.7359E+00,,1.0000E-12,,14.4712,14.4715,0.1177,298.075,,,,,,,,,,,,,,
CalCOFI,2101RL,031,,2101_031d,23-Jan-2021 03:18:57,22-Jan-2021 19:18:57,33.48414,-117.76852,090.0 028.0,090.0,028.0,42.000,42.304,,14.4713,,14.4718,,14.4716,33.5647,,33.5705,33.5614,,33.5634,33.5670,,,,,,,,,,,,,,,,,0.1565,,1.0342,1.4591, ,, , ,24.9803,,24.9777,,0.9898,78.0788,,,,3.1130E+00,,1.0000E-12,,14.4651,14.4657,0.1207,297.889,,,,,,,,,,,,,,
CalCOFI,2101RL,031,,2101_031d,23-Jan-2021 03:18:59,22-Jan-2021 19:18:59,33.48412,-117.76852,090.0 028.0,090.0,028.0,43.000,43.312,,14.4661,,14.4658,,14.4660,33.5662,,33.5720,33.5630,,33.5650,33.5685,,,,,,,,,,,,,,,,,0.1603,,1.0653,1.4858, ,, , ,24.9827,,24.9802,,0.9795,78.2791,,,,2.7141E+00,,1.0000E-12,,14.4598,14.4596,0.1237,297.698,,,,,,,,,,,,,,
CalCOFI,2101RL,031,,2101_031d,23-Jan-2021 03:19:02,22-Jan-2021 19:19:02,33.48412,-117.76852,090.0 028.0,090.0,028.0,44.000,44.319,,14.4491,,14.4503,,14.4497,33.5677,,33.5735,33.5645,,33.5665,33.5700,,,,,,,,,,,,,,,,,0.1584,,1.0497,1.4724, ,, , ,24.9874,,24.9847,,0.9822,78.2273,,,,2.6077E+00,,1.0000E-12,,14.4427,14.4439,0.1267,297.273,,,,,,,,,,,,,,
CalCOFI,2101RL,031,,2101_031d,23-Jan-2021 03:19:04,22-Jan-2021 19:19:04,33.48412,-117.76852,090.0 028.0,090.0,028.0,45.000,45.326,,14.4483,,14.4462,,14.4473,33.5677,,33.5735,33.5650,,33.5670,33.5703,,,,,,,,,,,,,,,,,0.1615,,1.0751,1.4942, ,, , ,24.9876,,24.9860,,0.9781,78.3074,,,,1.8570E+00,,1.0000E-12,,14.4417,14.4396,0.1297,297.285,,,,,,,,,,,,,,
CalCOFI,2101RL,031,,2101_031d,23-Jan-2021 03:19:06,22-Jan-2021 19:19:06,33.48410,-117.76852,090.0 028.0,090.0,028.0,46.000,46.334,,14.4295,,14.4271,,14.4283,33.5700,,33.5758,33.5676,,33.5696,33.5727,,,,,,,,,,,,,,,,,0.1649,,1.1030,1.5181, ,, , ,24.9934,,24.9921,,0.9750,78.3677,,,,1.8861E+00,,1.0000E-12,,14.4228,14.4204,0.1327,296.762,,,,,,,,,,,,,,
CalCOFI,2101RL,031,,2101_031d,23-Jan-2021 03:19:08,22-Jan-2021 19:19:08,33.48410,-117.76852,090.0 028.0,090.0,028.0,47.000,47.341,,14.3940,,14.3931,,14.3936,33.5728,,33.5786,33.5697,,33.5717,33.5752,,,,,,,,,,,,,,,,,0.1624,,1.0825,1.5006, ,, , ,25.0031,,25.0009,,0.9689,78.4889,,,,2.9334E+00,,1.0000E-12,,14.3871,14.3863,0.1357,295.866,,,,,,,,,,,,,,
CalCOFI,2101RL,031,,2101_031d,23-Jan-2021 03:19:11,22-Jan-2021 19:19:11,33.48410,-117.76852,090.0 028.0,090.0,028.0,48.000,48.348,,14.3850,,14.3816,,14.3833,33.5717,,33.5775,33.5690,,33.5710,33.5743,,,,,,,,,,,,,,,,,0.1504,,0.9842,1.4162, ,, , ,25.0042,,25.0028,,0.9565,78.7318,,,,3.2506E+00,,1.0000E-12,,14.3780,14.3746,0.1387,295.791,,,,,,,,,,,,,,
CalCOFI,2101RL,031,,2101_031d,23-Jan-2021 03:19:14,22-Jan-2021 19:19:14,33.48410,-117.76852,090.0 028.0,090.0,028.0,49.000,49.356,,14.3341,,14.3246,,14.3294,33.5721,,33.5779,33.5692,,33.5712,33.5746,,,,,,,,,,,,,,,,,0.1443,,0.9342,1.3733, ,, , ,25.0153,,25.0151,,0.9486,78.8884,,,,2.8562E+00,,1.0000E-12,,14.3269,14.3175,0.1416,294.759,,,,,,,,,,,,,,
CalCOFI,2101RL,031,,2101_031d,23-Jan-2021 03:19:47,22-Jan-2021 19:19:47,33.48409,-117.76849,090.0 028.0,090.0,028.0,50.000,50.363,,14.2168,,14.2208,,14.2188,33.5690,,33.5748,33.5657,,33.5677,33.5713,,,,,,,,,,,,,,,,,0.1380,,0.8826,1.3289, ,, , ,25.0376,,25.0342,,0.9305,79.2459,,,,2.9714E+00,,1.0000E-12,,14.2096,14.2135,0.1502,292.656,,,50,,33.5560,22.775,993.00,1.201,0.487,,,,,
